ProjectID,Date,Electric Generation,Electric Utility Import,Facility Electric Load
,YYYY-MM-DD,kW,kW,kW
60,2010-03-01,0.0,,0.0
60,2010-03-02,0.0,,0.0
60,2010-03-03,0.0,-4736.167041666667,-4736.167041666667
60,2010-03-04,0.0,,0.0
60,2010-03-05,0.0,,0.0
60,2010-03-06,0.0,,0.0
60,2010-03-07,0.0,,0.0
60,2010-03-08,0.0,-4433.812833333333,-4433.812833333333
60,2010-03-09,0.0,-4363.082291666667,-4363.082291666667
60,2010-03-10,0.0,-4026.4155416666667,-4026.4155416666667
60,2010-03-11,0.0,-4052.8430416666665,-4052.8430416666665
60,2010-03-12,0.0,-2942.783923076923,-2942.783923076923
60,2010-03-13,0.0,-7786.418000000001,-7786.418000000001
60,2010-03-14,0.0,-5491.772666666667,-5491.772666666667
60,2010-03-15,0.0,-9765.754833333334,-9765.754833333334
60,2010-03-16,0.0,-11011.038374999998,-11011.038374999998
60,2010-03-17,0.0,-4367.866083333333,-4367.866083333333
60,2010-03-18,0.0,-5077.200000000001,-5077.200000000001
60,2010-03-19,0.0,-3662.1331666666665,-3662.1331666666665
60,2010-03-20,0.0,-5878.954791666667,-5878.954791666667
60,2010-03-21,0.0,-3344.8037499999996,-3344.8037499999996
60,2010-03-22,0.0,-3559.7473333333332,-3559.7473333333332
60,2010-03-23,0.0,-3964.2165416666667,-3964.2165416666667
60,2010-03-24,0.0,-6841.295541666666,-6841.295541666666
60,2010-03-25,0.0,-5101.831958333333,-5101.831958333333
60,2010-03-26,0.0,-3564.758208333333,-3564.758208333333
60,2010-03-27,0.0,-4294.092666666666,-4294.092666666666
60,2010-03-28,0.0,-4639.110874999999,-4639.110874999999
60,2010-03-29,0.0,-4625.599666666667,-4625.599666666667
60,2010-03-30,0.0,-4319.2257500000005,-4319.2257500000005
60,2010-03-31,0.0,-3843.0240833333332,-3843.0240833333332
60,2010-04-01,0.0,-3680.8474583333336,-3680.8474583333336
60,2010-04-02,0.0,-14801.410416666666,-14801.410416666666
60,2010-04-03,0.0,-14856.165708333334,-14856.165708333334
60,2010-04-04,0.0,-3862.91625,-3862.91625
60,2010-04-05,0.0,-3914.4332083333334,-3914.4332083333334
60,2010-04-06,0.0,-3822.50275,-3822.50275
60,2010-04-07,0.0,-4619.288041666667,-4619.288041666667
60,2010-04-08,0.0,-4169.407041666666,-4169.407041666666
60,2010-04-09,0.0,-3412.1217916666665,-3412.1217916666665
60,2010-04-10,0.0,-592.9740416666667,-592.9740416666667
60,2010-04-11,0.0,-1030.2945,-1030.2945
60,2010-04-12,0.0,-198.20721739130434,-198.20721739130434
60,2010-04-13,0.0,,0.0
60,2010-04-14,0.0,-640.527,-640.527
60,2010-04-15,0.0,150.179125,150.179125
60,2010-04-16,0.0,-1808.2671666666665,-1808.2671666666665
60,2010-04-17,0.0,-661.146625,-661.146625
60,2010-04-18,0.0,-772.5129166666667,-772.5129166666667
60,2010-04-19,0.0,-1183.0085000000001,-1183.0085000000001
60,2010-04-20,0.0,-59.342166666666664,-59.342166666666664
60,2010-04-21,0.0,-3411.628166666667,-3411.628166666667
60,2010-04-22,0.0,-717.4678333333333,-717.4678333333333
60,2010-04-23,0.0,-200.42291666666665,-200.42291666666665
60,2010-04-24,0.0,-42.13525,-42.13525
60,2010-04-25,0.0,-381.24291666666664,-381.24291666666664
60,2010-04-26,0.0,-877.917625,-877.917625
60,2010-04-27,0.0,-257.39166666666665,-257.39166666666665
60,2010-04-28,0.0,551.8960416666666,551.8960416666666
60,2010-04-29,0.0,-385.5322083333333,-385.5322083333333
60,2010-04-30,0.0,-462.96004166666665,-462.96004166666665
60,2010-05-01,0.0,-460.0807916666667,-460.0807916666667
60,2010-05-02,0.0,-987.797,-987.797
60,2010-05-03,0.0,-494.76304166666665,-494.76304166666665
60,2010-05-04,0.0,-258.36825,-258.36825
60,2010-05-05,0.0,262.46195833333337,262.46195833333337
60,2010-05-06,0.0,374.44629166666664,374.44629166666664
60,2010-05-07,0.0,688.4213333333333,688.4213333333333
60,2010-05-08,0.0,406.67024999999995,406.67024999999995
60,2010-05-09,0.0,-1993.3380869565217,-1993.3380869565217
60,2010-05-10,0.0,,0.0
60,2010-05-11,0.0,,0.0
60,2010-05-12,0.0,,0.0
60,2010-05-13,0.0,,0.0
60,2010-05-14,0.0,,0.0
60,2010-05-15,0.0,,0.0
60,2010-05-16,0.0,-153.12158333333335,-153.12158333333335
60,2010-05-17,0.0,182.51692307692306,182.51692307692306
60,2010-05-18,0.0,,0.0
60,2010-05-19,0.0,,0.0
60,2010-05-20,0.0,,0.0
60,2010-05-21,0.0,,0.0
60,2010-05-22,0.0,,0.0
60,2010-05-23,0.0,,0.0
60,2010-05-24,0.0,,0.0
60,2010-05-25,0.0,,0.0
60,2010-05-26,0.0,-3987.2450833333332,-3987.2450833333332
60,2010-05-27,0.0,-995.5219166666667,-995.5219166666667
60,2010-05-28,0.0,-128.052,-128.052
60,2010-05-29,0.0,-378.6139166666667,-378.6139166666667
60,2010-05-30,0.0,-210.17954166666667,-210.17954166666667
60,2010-05-31,0.0,-19.552,-19.552
60,2010-06-01,0.0,-527.7813333333334,-527.7813333333334
60,2010-06-02,0.0,1.902375,1.902375
60,2010-06-03,0.0,-4344.688625,-4344.688625
60,2010-06-04,0.0,-272.332625,-272.332625
60,2010-06-05,0.0,-280.87512499999997,-280.87512499999997
60,2010-06-06,0.0,-140.58983333333333,-140.58983333333333
60,2010-06-07,0.0,158.914625,158.914625
60,2010-06-08,0.0,366.610375,366.610375
60,2010-06-09,0.0,343.2995416666667,343.2995416666667
60,2010-06-10,0.0,316.60041666666666,316.60041666666666
60,2010-06-11,0.0,-3695.6956666666665,-3695.6956666666665
60,2010-06-12,0.0,-673.028,-673.028
60,2010-06-13,0.0,-342.44250000000005,-342.44250000000005
60,2010-06-14,0.0,-35.23158333333333,-35.23158333333333
60,2010-06-15,0.0,12.717458333333333,12.717458333333333
60,2010-06-16,0.0,-390.41545833333333,-390.41545833333333
60,2010-06-17,0.0,-267.5817083333333,-267.5817083333333
60,2010-06-18,0.0,-52.34969230769231,-52.34969230769231
60,2010-06-19,0.0,2655.0392500000003,2655.0392500000003
60,2010-06-20,0.0,317.0891250000004,317.0891250000004
60,2010-06-21,0.0,49.092666666666666,49.092666666666666
60,2010-06-22,0.0,5869.540249999999,5869.540249999999
60,2010-06-23,0.0,4333.7640833333335,4333.7640833333335
60,2010-06-24,0.0,-232.88312499999998,-232.88312499999998
60,2010-06-25,0.0,42.22629166666667,42.22629166666667
60,2010-06-26,0.0,-196.57766666666666,-196.57766666666666
60,2010-06-27,0.0,-339.561625,-339.561625
60,2010-06-28,0.0,-614.04875,-614.04875
60,2010-06-29,0.0,-23.295923076923074,-23.295923076923074
60,2010-06-30,0.0,68.68475,68.68475
60,2010-07-01,0.0,104.35895833333332,104.35895833333332
60,2010-07-02,0.0,216.03420833333334,216.03420833333334
60,2010-07-03,0.0,184.69366666666667,184.69366666666667
60,2010-07-04,0.0,9.626708333333333,9.626708333333333
60,2010-07-05,0.0,-343.89716666666664,-343.89716666666664
60,2010-07-06,0.0,-466.926,-466.926
60,2010-07-07,0.0,-197.11083333333332,-197.11083333333332
60,2010-07-08,0.0,-139.79358333333332,-139.79358333333332
60,2010-07-09,0.0,-199.77470833333334,-199.77470833333334
60,2010-07-10,0.0,,0.0
60,2010-07-11,0.0,-314.40958333333333,-314.40958333333333
60,2010-07-12,0.0,159.89275,159.89275
60,2010-07-13,0.0,-155.29166666666666,-155.29166666666666
60,2010-07-14,0.0,141.01433333333333,141.01433333333333
60,2010-07-15,0.0,392.87584615384617,392.87584615384617
60,2010-07-16,0.0,,0.0
60,2010-07-17,0.0,,0.0
60,2010-07-18,0.0,-1766.8380833333333,-1766.8380833333333
60,2010-07-19,0.0,-411.56300000000005,-411.56300000000005
60,2010-07-20,0.0,-236.16120833333332,-236.16120833333332
60,2010-07-21,0.0,-226.63666666666666,-226.63666666666666
60,2010-07-22,0.0,2.9555000000000127,2.9555000000000127
60,2010-07-23,0.0,226.1398333333333,226.1398333333333
60,2010-07-24,0.0,-999.0710833333333,-999.0710833333333
60,2010-07-25,0.0,-602.8165,-602.8165
60,2010-07-26,0.0,183.62823076923075,183.62823076923075
60,2010-07-27,0.0,-259.95775,-259.95775
60,2010-07-28,0.0,-339.39229166666667,-339.39229166666667
60,2010-07-29,0.0,-520.176625,-520.176625
60,2010-07-30,0.0,-2860.3967916666666,-2860.3967916666666
60,2010-07-31,0.0,642.0821538461538,642.0821538461538
60,2010-08-01,0.0,-561.256,-561.256
60,2010-08-02,0.0,233.79170833333333,233.79170833333333
60,2010-08-03,0.0,-195.7385416666667,-195.7385416666667
60,2010-08-04,0.0,-2657.50475,-2657.50475
60,2010-08-05,0.0,299.95376923076924,299.95376923076924
60,2010-08-06,0.0,-5.6809583333333755,-5.6809583333333755
60,2010-08-07,0.0,159.58158333333333,159.58158333333333
60,2010-08-08,0.0,-164.09329166666666,-164.09329166666666
60,2010-08-09,0.0,313.3098333333333,313.3098333333333
60,2010-08-10,0.0,784.8994166666666,784.8994166666666
60,2010-08-11,0.0,1661.0719583333332,1661.0719583333332
60,2010-08-12,0.0,-30.686749999999957,-30.686749999999957
60,2010-08-13,0.0,-31.206999999999997,-31.206999999999997
60,2010-08-14,0.0,63.089333333333336,63.089333333333336
60,2010-08-15,0.0,-68.03716666666666,-68.03716666666666
60,2010-08-16,0.0,-215.98612500000002,-215.98612500000002
60,2010-08-17,0.0,-208.49970833333336,-208.49970833333336
60,2010-08-18,0.0,-142.11204166666667,-142.11204166666667
60,2010-08-19,0.0,-33.620875,-33.620875
60,2010-08-20,0.0,-16.721,-16.721
60,2010-08-21,0.0,-2639.5943333333335,-2639.5943333333335
60,2010-08-22,0.0,-407.139625,-407.139625
60,2010-08-23,0.0,-225.486,-225.486
60,2010-08-24,0.0,-36.761583333333334,-36.761583333333334
60,2010-08-25,0.0,-9.421125,-9.421125
60,2010-08-26,0.0,-26.830083333333334,-26.830083333333334
60,2010-08-27,0.0,78.10829166666666,78.10829166666666
60,2010-08-28,0.0,52.14633333333333,52.14633333333333
60,2010-08-29,0.0,-0.85150000000005,-0.85150000000005
60,2010-08-30,0.0,15.014124999999957,15.014124999999957
60,2010-08-31,0.0,-912.9574166666666,-912.9574166666666
60,2010-09-01,0.0,-459.235125,-459.235125
60,2010-09-02,0.0,-34.60095833333333,-34.60095833333333
60,2010-09-03,0.0,1554.574076923077,1554.574076923077
60,2010-09-04,0.0,,0.0
60,2010-09-05,0.0,-50.663000000000004,-50.663000000000004
60,2010-09-06,0.0,-1623.6383846153844,-1623.6383846153844
60,2010-09-07,0.0,-1182.6245833333335,-1182.6245833333335
60,2010-09-08,0.0,-2921.3596666666667,-2921.3596666666667
60,2010-09-09,0.0,607.0622916666667,607.0622916666667
60,2010-09-10,0.0,878.9702083333333,878.9702083333333
60,2010-09-11,0.0,22.124916666666667,22.124916666666667
60,2010-09-12,0.0,-543.56325,-543.56325
60,2010-09-13,0.0,-1580.01625,-1580.01625
60,2010-09-14,0.0,-157.87408333333335,-157.87408333333335
60,2010-09-15,0.0,105.75824999999999,105.75824999999999
60,2010-09-16,0.0,-188.01537499999998,-188.01537499999998
60,2010-09-17,0.0,-85.563875,-85.563875
60,2010-09-18,0.0,106.84707692307691,106.84707692307691
60,2010-09-19,0.0,,0.0
60,2010-09-20,0.0,-215.57529166666666,-215.57529166666666
60,2010-09-21,0.0,39.47083333333333,39.47083333333333
60,2010-09-22,0.0,-59.551208333333335,-59.551208333333335
60,2010-09-23,0.0,-16.802,-16.802
60,2010-09-24,0.0,144.37766666666667,144.37766666666667
60,2010-09-25,0.0,-4714.957416666667,-4714.957416666667
60,2010-09-26,0.0,-765.6000833333333,-765.6000833333333
60,2010-09-27,0.0,223.6939583333333,223.6939583333333
60,2010-09-28,0.0,381.59987500000005,381.59987500000005
60,2010-09-29,0.0,149.31170833333334,149.31170833333334
60,2010-09-30,0.0,165.526625,165.526625
60,2010-10-01,0.0,-49.42070833333333,-49.42070833333333
60,2010-10-02,0.0,69.49108333333334,69.49108333333334
60,2010-10-03,0.0,105.665,105.665
60,2010-10-04,0.0,-8.957749999999999,-8.957749999999999
60,2010-10-05,0.0,-433.63533333333334,-433.63533333333334
60,2010-10-06,0.0,215.38070833333333,215.38070833333333
60,2010-10-07,0.0,444.75429166666663,444.75429166666663
60,2010-10-08,0.0,450.9194166666667,450.9194166666667
60,2010-10-09,0.0,252.9706666666667,252.9706666666667
60,2010-10-10,0.0,117.732625,117.732625
60,2010-10-11,0.0,191.11279166666668,191.11279166666668
60,2010-10-12,0.0,279.050375,279.050375
60,2010-10-13,0.0,175.15200000000002,175.15200000000002
60,2010-10-14,0.0,-32.13333333333333,-32.13333333333333
60,2010-10-15,0.0,-276.30533333333335,-276.30533333333335
60,2010-10-16,0.0,-2.544625,-2.544625
60,2010-10-17,0.0,-274.95099999999996,-274.95099999999996
60,2010-10-18,0.0,211.18023076923075,211.18023076923075
60,2010-10-19,0.0,-198.16887499999999,-198.16887499999999
60,2010-10-20,0.0,184.1062916666667,184.1062916666667
60,2010-10-21,0.0,135.579875,135.579875
60,2010-10-22,0.0,135.33358333333334,135.33358333333334
60,2010-10-23,0.0,115.22095833333333,115.22095833333333
60,2010-10-24,0.0,416.677125,416.677125
60,2010-10-25,0.0,239.8785,239.8785
60,2010-10-26,0.0,24.651166666666626,24.651166666666626
60,2010-10-27,0.0,138.64716666666666,138.64716666666666
60,2010-10-28,0.0,95.78654166666666,95.78654166666666
60,2010-10-29,0.0,-35.21541666666666,-35.21541666666666
60,2010-10-30,0.0,-118.50704166666667,-118.50704166666667
60,2010-10-31,0.0,80.74116666666667,80.74116666666667
60,2010-11-01,0.0,121.48541666666667,121.48541666666667
60,2010-11-02,0.0,-27.490708333333334,-27.490708333333334
60,2010-11-03,0.0,102.12479166666667,102.12479166666667
60,2010-11-04,0.0,77.419875,77.419875
60,2010-11-05,0.0,54.584916666666665,54.584916666666665
60,2010-11-06,0.0,-0.3163333333333279,-0.3163333333333279
60,2010-11-07,0.0,-29.004958333333335,-29.004958333333335
60,2010-11-08,0.0,81.95558333333334,81.95558333333334
60,2010-11-09,0.0,164.99458333333334,164.99458333333334
60,2010-11-10,0.0,-59.53216666666666,-59.53216666666666
60,2010-11-11,0.0,-493.9792916666667,-493.9792916666667
60,2010-11-12,0.0,-226.383375,-226.383375
60,2010-11-13,0.0,1655.913125,1655.913125
60,2010-11-14,0.0,1715.5842916666668,1715.5842916666668
60,2010-11-15,0.0,1892.2047916666668,1892.2047916666668
60,2010-11-16,0.0,1664.9105833333333,1664.9105833333333
60,2010-11-17,0.0,2070.08425,2070.08425
60,2010-11-18,0.0,79.67087500000001,79.67087500000001
60,2010-11-19,0.0,511.42175,511.42175
60,2010-11-20,0.0,347.93137499999995,347.93137499999995
60,2010-11-21,0.0,668.2444583333333,668.2444583333333
60,2010-11-22,0.0,334.10841666666664,334.10841666666664
60,2010-11-23,0.0,439.53833333333336,439.53833333333336
60,2010-11-24,0.0,306.11404166666665,306.11404166666665
60,2010-11-25,0.0,252.8072083333333,252.8072083333333
60,2010-11-26,0.0,15.068083333333334,15.068083333333334
60,2010-11-27,0.0,51.60520833333334,51.60520833333334
60,2010-11-28,0.0,13.349541666666667,13.349541666666667
60,2010-11-29,0.0,78.09083333333334,78.09083333333334
60,2010-11-30,0.0,74.24612499999999,74.24612499999999
60,2010-12-01,0.0,-69.1465,-69.1465
60,2010-12-02,0.0,185.08583333333334,185.08583333333334
60,2010-12-03,0.0,138.20258333333334,138.20258333333334
60,2010-12-04,0.0,47.57908333333333,47.57908333333333
60,2010-12-05,0.0,50.401375,50.401375
60,2010-12-06,0.0,117.292125,117.292125
60,2010-12-07,0.0,160.02454166666666,160.02454166666666
60,2010-12-08,0.0,-1292.5855416666666,-1292.5855416666666
60,2010-12-09,0.0,-4164.839666666667,-4164.839666666667
60,2010-12-10,0.0,-300.68941666666666,-300.68941666666666
60,2010-12-11,0.0,-190.98191666666665,-190.98191666666665
60,2010-12-12,0.0,-282.80041666666665,-282.80041666666665
60,2010-12-13,0.0,-300.95866666666666,-300.95866666666666
60,2010-12-14,0.0,-5212.121208333333,-5212.121208333333
60,2010-12-15,0.0,-7196.7384999999995,-7196.7384999999995
60,2010-12-16,0.0,-1527.6725416666668,-1527.6725416666668
60,2010-12-17,0.0,-3980.401208333333,-3980.401208333333
60,2010-12-18,0.0,157.45575,157.45575
60,2010-12-19,0.0,-1.9502916666666499,-1.9502916666666499
60,2010-12-20,0.0,226.38741666666667,226.38741666666667
60,2010-12-21,0.0,110.33154166666667,110.33154166666667
60,2010-12-22,0.0,46.332750000000004,46.332750000000004
60,2010-12-23,0.0,81.50220833333334,81.50220833333334
60,2010-12-24,0.0,-16.708291666666668,-16.708291666666668
60,2010-12-25,0.0,8.312875,8.312875
60,2010-12-26,0.0,-3146.736083333333,-3146.736083333333
60,2010-12-27,0.0,-7557.425875,-7557.425875
60,2010-12-28,0.0,-261.42075,-261.42075
60,2010-12-29,0.0,-551.269375,-551.269375
60,2010-12-30,0.0,-2184.4651666666664,-2184.4651666666664
60,2010-12-31,0.0,-1442.8446666666666,-1442.8446666666666
60,2011-01-01,0.0,-42.825250000000004,-42.825250000000004
60,2011-01-02,0.0,-2.8142916666666626,-2.8142916666666626
60,2011-01-03,0.0,111.76795833333334,111.76795833333334
60,2011-01-04,0.0,102.24279166666668,102.24279166666668
60,2011-01-05,0.0,127.75733333333334,127.75733333333334
60,2011-01-06,0.0,-75.00008333333334,-75.00008333333334
60,2011-01-07,0.0,-206.58483333333334,-206.58483333333334
60,2011-01-08,0.0,-168.18333333333334,-168.18333333333334
60,2011-01-09,0.0,-347.1310416666667,-347.1310416666667
60,2011-01-10,0.0,-231.26945833333332,-231.26945833333332
60,2011-01-11,0.0,-552.0883749999999,-552.0883749999999
60,2011-01-12,0.0,-94.34120833333333,-94.34120833333333
60,2011-01-13,0.0,10.86025,10.86025
60,2011-01-14,0.0,379.27529166666665,379.27529166666665
60,2011-01-15,0.0,195.56529166666667,195.56529166666667
60,2011-01-16,0.0,268.470375,268.470375
60,2011-01-17,0.0,274.67199999999997,274.67199999999997
60,2011-01-18,0.0,388.90704166666666,388.90704166666666
60,2011-01-19,0.0,171.33829166666666,171.33829166666666
60,2011-01-20,0.0,42.31191666666667,42.31191666666667
60,2011-01-21,0.0,-2398.7678333333333,-2398.7678333333333
60,2011-01-22,0.0,-6917.917375,-6917.917375
60,2011-01-23,0.0,-7099.790791666666,-7099.790791666666
60,2011-01-24,0.0,-6870.6765000000005,-6870.6765000000005
60,2011-01-25,0.0,-6479.848875,-6479.848875
60,2011-01-26,0.0,-4855.403625,-4855.403625
60,2011-01-27,0.0,-396.91541666666666,-396.91541666666666
60,2011-01-28,0.0,-5168.247249999999,-5168.247249999999
60,2011-01-29,0.0,-3556.5736666666667,-3556.5736666666667
60,2011-01-30,0.0,-9644.725916666666,-9644.725916666666
60,2011-01-31,0.0,-4513.361875,-4513.361875
60,2011-02-01,0.0,-280.67904166666665,-280.67904166666665
60,2011-02-02,0.0,-457.657375,-457.657375
60,2011-02-03,0.0,-105.50999999999999,-105.50999999999999
60,2011-02-04,0.0,-213.29391666666666,-213.29391666666666
60,2011-02-05,0.0,-403.9269166666666,-403.9269166666666
60,2011-02-06,0.0,-323.6969583333333,-323.6969583333333
60,2011-02-07,0.0,-115.04091666666666,-115.04091666666666
60,2011-02-08,0.0,-400.53191666666663,-400.53191666666663
60,2011-02-09,0.0,72.18050000000001,72.18050000000001
60,2011-02-10,0.0,45.520125,45.520125
60,2011-02-11,0.0,-3860.38875,-3860.38875
60,2011-02-12,0.0,368.428375,368.428375
60,2011-02-13,0.0,276.7262083333333,276.7262083333333
60,2011-02-14,0.0,-5749.857416666667,-5749.857416666667
60,2011-02-15,0.0,-2897.5994166666665,-2897.5994166666665
60,2011-02-16,0.0,313.23829166666667,313.23829166666667
60,2011-02-17,0.0,69.044,69.044
60,2011-02-18,0.0,123.26320833333334,123.26320833333334
60,2011-02-19,0.0,127.13062500000001,127.13062500000001
60,2011-02-20,0.0,131.56,131.56
60,2011-02-21,0.0,-496.7282916666666,-496.7282916666666
60,2011-02-22,0.0,-94.58620833333333,-94.58620833333333
60,2011-02-23,0.0,18.977708333333332,18.977708333333332
60,2011-02-24,0.0,6.201250000000001,6.201250000000001
60,2011-02-25,0.0,149.96083333333334,149.96083333333334
60,2011-02-26,0.0,443.50612500000005,443.50612500000005
60,2011-02-27,0.0,390.81033333333335,390.81033333333335
60,2011-02-28,0.0,46.632625,46.632625
60,2011-03-01,0.0,161.16516666666666,161.16516666666666
60,2011-03-02,0.0,228.21316666666667,228.21316666666667
60,2011-03-03,0.0,-47.430958333333336,-47.430958333333336
60,2011-03-04,0.0,-76.52008333333333,-76.52008333333333
60,2011-03-05,0.0,-112.396125,-112.396125
60,2011-03-06,0.0,-197.67904166666665,-197.67904166666665
60,2011-03-07,0.0,-12.001541666666709,-12.001541666666709
60,2011-03-08,0.0,30.222791666666666,30.222791666666666
60,2011-03-09,0.0,359.1660416666667,359.1660416666667
60,2011-03-10,0.0,111.13179166666667,111.13179166666667
60,2011-03-11,0.0,670.01375,670.01375
60,2011-03-12,0.0,422.87037499999997,422.87037499999997
60,2011-03-13,0.0,455.34952173913047,455.34952173913047
60,2011-03-14,0.0,520.2771666666666,520.2771666666666
60,2011-03-15,0.0,641.8747916666667,641.8747916666667
60,2011-03-16,0.0,402.68333333333334,402.68333333333334
60,2011-03-17,0.0,346.6845,346.6845
60,2011-03-18,0.0,107.623,107.623
60,2011-03-19,0.0,90.98162500000001,90.98162500000001
60,2011-03-20,0.0,128.43366666666665,128.43366666666665
60,2011-03-21,0.0,92.29783333333334,92.29783333333334
60,2011-03-22,0.0,168.70374999999999,168.70374999999999
60,2011-03-23,0.0,24.976416666666665,24.976416666666665
60,2011-03-24,0.0,-644.0310833333333,-644.0310833333333
60,2011-03-25,0.0,-2121.506083333333,-2121.506083333333
60,2011-03-26,0.0,-703.3051666666667,-703.3051666666667
60,2011-03-27,0.0,-766.573,-766.573
60,2011-03-28,0.0,137.51454166666667,137.51454166666667
60,2011-03-29,0.0,-169.30120833333334,-169.30120833333334
60,2011-03-30,0.0,2032.4799583333333,2032.4799583333333
60,2011-03-31,0.0,1466.152375,1466.152375
60,2011-04-01,0.0,849.6982916666666,849.6982916666666
60,2011-04-02,0.0,-877.0332083333333,-877.0332083333333
60,2011-04-03,0.0,-8.737291666666666,-8.737291666666666
60,2011-04-04,0.0,-46.99616666666666,-46.99616666666666
60,2011-04-05,0.0,-83.24583333333334,-83.24583333333334
60,2011-04-06,0.0,72.78220833333333,72.78220833333333
60,2011-04-07,0.0,130.58337500000002,130.58337500000002
60,2011-04-08,0.0,1485.5453333333335,1485.5453333333335
60,2011-04-09,0.0,2692.864916666667,2692.864916666667
60,2011-04-10,0.0,5457.12675,5457.12675
60,2011-04-11,0.0,5786.400708333334,5786.400708333334
60,2011-04-12,0.0,5804.325125,5804.325125
60,2011-04-13,0.0,6005.302875,6005.302875
60,2011-04-14,0.0,6600.984333333334,6600.984333333334
60,2011-04-15,0.0,6661.899791666667,6661.899791666667
60,2011-04-16,0.0,4889.630958333333,4889.630958333333
60,2011-04-17,0.0,1706.7975,1706.7975
60,2011-04-18,0.0,1856.5060416666665,1856.5060416666665
60,2011-04-19,0.0,1924.7257499999998,1924.7257499999998
60,2011-04-20,0.0,2115.3810416666665,2115.3810416666665
60,2011-04-21,0.0,2242.0480000000002,2242.0480000000002
60,2011-04-22,0.0,2067.52525,2067.52525
60,2011-04-23,0.0,1367.9319166666667,1367.9319166666667
60,2011-04-24,0.0,1887.414375,1887.414375
60,2011-04-25,0.0,2369.7904166666667,2369.7904166666667
60,2011-04-26,0.0,523.0775416666667,523.0775416666667
60,2011-04-27,0.0,-79.69675000000042,-79.69675000000042
60,2011-04-28,0.0,-1369.880625,-1369.880625
60,2011-04-29,0.0,-1243.6875,-1243.6875
60,2011-04-30,0.0,2485.519083333333,2485.519083333333
60,2011-05-01,0.0,2358.0679999999998,2358.0679999999998
60,2011-05-02,0.0,2780.804875,2780.804875
60,2011-05-03,0.0,3791.6919166666667,3791.6919166666667
60,2011-05-04,0.0,3882.316125,3882.316125
60,2011-05-05,0.0,2159.171,2159.171
60,2011-05-06,0.0,1696.277,1696.277
60,2011-05-07,0.0,3824.9486666666667,3824.9486666666667
60,2011-05-08,0.0,2299.604875,2299.604875
60,2011-05-09,0.0,4259.628333333333,4259.628333333333
60,2011-05-10,0.0,4271.135166666667,4271.135166666667
60,2011-05-11,0.0,480.09116666666665,480.09116666666665
60,2011-05-12,0.0,4172.89825,4172.89825
60,2011-05-13,0.0,4000.6699583333334,4000.6699583333334
60,2011-05-14,0.0,1720.6349166666666,1720.6349166666666
60,2011-05-15,0.0,-1738.2420833333333,-1738.2420833333333
60,2011-05-16,0.0,-347.01916666666665,-347.01916666666665
60,2011-05-17,0.0,877.1523333333333,877.1523333333333
60,2011-05-18,0.0,2820.992875,2820.992875
60,2011-05-19,0.0,3087.816666666667,3087.816666666667
60,2011-05-20,0.0,3140.46225,3140.46225
60,2011-05-21,0.0,3247.873708333333,3247.873708333333
60,2011-05-22,0.0,2615.660125,2615.660125
60,2011-05-23,0.0,2712.051125,2712.051125
60,2011-05-24,0.0,2464.7802916666665,2464.7802916666665
60,2011-05-25,0.0,2241.64475,2241.64475
60,2011-05-26,0.0,1933.4687916666664,1933.4687916666664
60,2011-05-27,0.0,-1244.6409166666667,-1244.6409166666667
60,2011-05-28,0.0,-6520.363666666667,-6520.363666666667
60,2011-05-29,0.0,-6343.283625,-6343.283625
60,2011-05-30,0.0,-7376.302124999999,-7376.302124999999
60,2011-05-31,0.0,-6991.336083333333,-6991.336083333333
60,2011-06-01,0.0,-7362.3800833333335,-7362.3800833333335
60,2011-06-02,0.0,-6900.743166666667,-6900.743166666667
60,2011-06-03,0.0,-5780.04,-5780.04
60,2011-06-04,0.0,-5618.487666666667,-5618.487666666667